Weather History for KHDO - October, 2013

Change the Weather History Date:

Thursday, October 17, 2013

  Actual Average Record
Temperature  
Mean Temperature 66 °F -  
Max Temperature 77 °F 80 °F 93 °F (2003)
Min Temperature 55 °F 56 °F 46 °F (1997)
Cooling Degree Days 1    
Growing Degree Days 16 (Base 50)    
Moisture  
Dew Point 54 °F    
Average Humidity 67    
Maximum Humidity 90    
Minimum Humidity 42    
Precipitation  
Precipitation 0.00 in - - ()
Sea Level Pressure  
Sea Level Pressure 30.05 in    
Wind  
Wind Speed 4 mph (ENE)    
Max Wind Speed 8 mph    
Max Gust Speed -    
Visibility 10 miles    
Events      
Averages and records for this station are not official NWS values.
T = Trace of Precipitation, MM = Missing Value Source: NWS Daily Summary

Daily Weather History Graph

Daily Weather History Graph

Search for Another Location

Airport or City:

Trip Planner

Search our weather history database for the weather conditions in past years. The results will help you decide how hot, cold, wet, or windy it might be!

Date:

Astronomy

Oct. 17, 2013 Rise Set
Actual Time 7:39 AM CDT 7:03 PM CDT
Civil Twilight 7:15 AM CDT 7:27 PM CDT
Nautical Twilight 6:47 AM CDT 7:55 PM CDT
Astronomical Twilight 6:20 AM CDT 8:23 PM CDT
Moon 6:16 PM CDT (10/17) 6:18 AM CDT (10/17)
Length of Visible Light 12h 12m
Length of Day
11h 24m
Waxing Gibbous, 98% of the Moon is Illuminated
Oct 17
Waxing Gibbous
Oct 18
Full
Oct 26
Last Quarter
Nov 3
New
Nov 9
First Quarter

Hourly Weather History & Observations

Time (CDT) Temp. Dew Point Humidity Pressure Visibility Wind Dir Wind Speed Gust Speed Precip Events Conditions
12:03 AM 64.0 °F 57.9 °F 80% 30.10 in 10.0 mi Calm Calm - N/A   Overcast
12:51 AM 64.0 °F 59.0 °F 84% 30.07 in 10.0 mi Calm Calm - N/A   Overcast
1:12 AM 64.0 °F 59.0 °F 84% 30.10 in 10.0 mi Calm Calm - N/A   Overcast
1:51 AM 64.0 °F 59.0 °F 84% 30.08 in 10.0 mi Calm Calm - N/A   Overcast
2:51 AM 64.0 °F 57.9 °F 80% 30.07 in 10.0 mi NE 4.6 mph - N/A   Overcast
3:51 AM 63.0 °F 55.0 °F 75% 30.06 in 10.0 mi NE 8.1 mph - N/A   Overcast
4:36 AM 60.1 °F 54.0 °F 80% 30.08 in 10.0 mi NE 6.9 mph - N/A   Partly Cloudy
4:51 AM 60.1 °F 54.0 °F 80% 30.06 in 10.0 mi ENE 4.6 mph - N/A   Clear
5:51 AM 57.9 °F 54.0 °F 87% 30.06 in 10.0 mi NNE 4.6 mph - N/A   Clear
6:51 AM 55.9 °F 53.1 °F 90% 30.08 in 10.0 mi North 6.9 mph - N/A   Clear
7:51 AM 55.0 °F 51.1 °F 86% 30.09 in 10.0 mi North 4.6 mph - N/A   Clear
8:51 AM 60.1 °F 52.0 °F 75% 30.12 in 10.0 mi NNW 6.9 mph - N/A   Clear
9:51 AM 64.9 °F 50.0 °F 58% 30.14 in 10.0 mi NNE 4.6 mph - N/A   Clear
10:51 AM 66.9 °F 48.9 °F 52% 30.13 in 10.0 mi ENE 6.9 mph - N/A   Clear
11:51 AM 69.1 °F 48.9 °F 49% 30.12 in 10.0 mi NNE 8.1 mph - N/A   Clear
12:51 PM 71.1 °F 51.1 °F 49% 30.08 in 10.0 mi ESE 5.8 mph - N/A   Clear
1:51 PM 73.0 °F 51.1 °F 46% 30.04 in 10.0 mi Variable 5.8 mph - N/A   Clear
2:51 PM 73.9 °F 52.0 °F 46% 30.01 in 10.0 mi ESE 5.8 mph - N/A   Clear
3:51 PM 75.9 °F 51.1 °F 42% 29.99 in 10.0 mi Variable 3.5 mph - N/A   Clear
4:51 PM 77.0 °F 53.1 °F 43% 29.98 in 10.0 mi ESE 8.1 mph - N/A   Clear
5:51 PM 75.9 °F 53.1 °F 45% 29.97 in 10.0 mi SE 5.8 mph - N/A   Clear
6:51 PM 72.0 °F 55.0 °F 55% 29.97 in 10.0 mi SE 5.8 mph - N/A   Clear
7:51 PM 68.0 °F 55.0 °F 63% 29.99 in 10.0 mi ESE 8.1 mph - N/A   Clear
8:51 PM 66.9 °F 52.0 °F 59% 29.99 in 10.0 mi East 8.1 mph - N/A   Clear
9:51 PM 64.9 °F 52.0 °F 63% 30.00 in 10.0 mi East 5.8 mph - N/A   Clear
10:51 PM 64.0 °F 52.0 °F 65% 30.01 in 10.0 mi East 4.6 mph - N/A   Scattered Clouds
11:51 PM 60.1 °F 54.0 °F 80% 29.99 in 10.0 mi NE 4.6 mph - N/A   Clear